EN

Hourly Weather Tres de Maio

Today, 11 April, Sunday

Time Temperature Precipitation Wind Pressure Humidity
00:00 +23°C° 0 mm 1 mps 728 mmHg 59%
01:00 +23°C° 0 mm 1 mps 727 mmHg 59%
02:00 +21°C° 0 mm 2 mps 727 mmHg 60%
03:00 +21°C° 0 mm 2 mps 727 mmHg 62%
04:00 +21°C° 0 mm 2 mps 727 mmHg 64%
05:00 +20°C° 0 mm 3 mps 727 mmHg 66%
06:00 +22°C° 0 mm 3 mps 728 mmHg 61%
07:00 +25°C° 0 mm 4 mps 728 mmHg 56%
08:00 +26°C° 0 mm 4 mps 729 mmHg 51%
09:00 +28°C° 0 mm 5 mps 729 mmHg 46%
10:00 +30°C° 0 mm 5 mps 729 mmHg 41%
11:00 +33°C° 0 mm 6 mps 729 mmHg 36%
12:00 +33°C° 0 mm 6 mps 729 mmHg 38%
13:00 +33°C° 0 mm 6 mps 728 mmHg 41%
14:00 +33°C° 0 mm 5 mps 728 mmHg 44%
15:00 +30°C° 0.1 mm 5 mps 728 mmHg 56%
16:00 +27°C° 0.1 mm 5 mps 729 mmHg 68%
17:00 +25°C° 0.1 mm 5 mps 729 mmHg 80%
18:00 +22°C° 0 mm 5 mps 729 mmHg 81%
19:00 +21°C° 0 mm 4 mps 730 mmHg 82%
20:00 +19°C° 0 mm 3 mps 730 mmHg 82%
21:00 +19°C° 0 mm 3 mps 730 mmHg 81%
22:00 +18°C° 0 mm 3 mps 730 mmHg 79%
23:00 +18°C° 0 mm 3 mps 731 mmHg 77%

Tomorrow, 12 April, Monday

Time Temperature Precipitation Wind Pressure Humidity
00:00 +18°C° 0 mm 3 mps 731 mmHg 77%
01:00 +17°C° 0 mm 3 mps 731 mmHg 77%
02:00 +17°C° 0 mm 3 mps 730 mmHg 78%
03:00 +16°C° 0 mm 3 mps 731 mmHg 79%
04:00 +16°C° 0 mm 2 mps 731 mmHg 81%
05:00 +15°C° 0 mm 2 mps 731 mmHg 83%
06:00 +16°C° 0 mm 3 mps 732 mmHg 77%
07:00 +17°C° 0 mm 3 mps 732 mmHg 71%
08:00 +19°C° 0 mm 3 mps 733 mmHg 64%
09:00 +21°C° 0 mm 3 mps 733 mmHg 56%
10:00 +24°C° 0 mm 3 mps 733 mmHg 48%
11:00 +26°C° 0 mm 2 mps 733 mmHg 40%
12:00 +27°C° 0 mm 2 mps 732 mmHg 37%
13:00 +28°C° 0 mm 2 mps 732 mmHg 34%
14:00 +29°C° 0 mm 2 mps 731 mmHg 31%
15:00 +28°C° 0 mm 2 mps 731 mmHg 35%
16:00 +26°C° 0 mm 2 mps 731 mmHg 38%
17:00 +25°C° 0 mm 2 mps 731 mmHg 42%
18:00 +24°C° 0 mm 2 mps 731 mmHg 46%
19:00 +21°C° 0 mm 2 mps 731 mmHg 50%
20:00 +19°C° 0 mm 3 mps 731 mmHg 54%
21:00 +19°C° 0 mm 3 mps 732 mmHg 56%
22:00 +19°C° 0 mm 3 mps 732 mmHg 58%
23:00 +18°C° 0 mm 3 mps 732 mmHg 60%

Day after tomorrow, 13 April, Tuesday

Time Temperature Precipitation Wind Pressure Humidity
00:00 +18°C° 0 mm 3 mps 732 mmHg 63%
01:00 +18°C° 0 mm 2 mps 731 mmHg 66%
02:00 +17°C° 0 mm 2 mps 731 mmHg 69%
03:00 +17°C° 0.1 mm 2 mps 731 mmHg 72%
04:00 +17°C° 0.1 mm 2 mps 732 mmHg 75%
05:00 +16°C° 0.1 mm 2 mps 732 mmHg 78%
06:00 +17°C° 0.1 mm 2 mps 732 mmHg 75%
07:00 +18°C° 0.1 mm 2 mps 733 mmHg 72%
08:00 +19°C° 0.1 mm 2 mps 733 mmHg 69%
09:00 +23°C° 0 mm 2 mps 733 mmHg 60%
10:00 +25°C° 0 mm 1 mps 733 mmHg 50%
11:00 +28°C° 0 mm 1 mps 733 mmHg 41%
12:00 +28°C° 0.1 mm 1 mps 733 mmHg 41%
13:00 +28°C° 0.1 mm 2 mps 732 mmHg 40%
14:00 +29°C° 0.1 mm 2 mps 732 mmHg 40%
15:00 +27°C° 0.3 mm 2 mps 731 mmHg 48%
16:00 +25°C° 0.3 mm 2 mps 731 mmHg 57%
17:00 +24°C° 0.3 mm 2 mps 731 mmHg 66%
18:00 +23°C° 0.1 mm 1 mps 731 mmHg 67%
19:00 +22°C° 0.1 mm 1 mps 731 mmHg 69%
20:00 +21°C° 0.1 mm 1 mps 731 mmHg 71%
21:00 +20°C° 0 mm 1 mps 731 mmHg 73%
22:00 +20°C° 0 mm 1 mps 731 mmHg 74%
23:00 +19°C° 0 mm 1 mps 731 mmHg 76%

14 April, Wednesday

Time Temperature Precipitation Wind Pressure Humidity
00:00 +19°C° 0 mm 1 mps 731 mmHg 78%
01:00 +19°C° 0 mm 1 mps 730 mmHg 80%
02:00 +18°C° 0 mm 1 mps 730 mmHg 83%
03:00 +18°C° 0.2 mm 1 mps 730 mmHg 85%
04:00 +18°C° 0.2 mm 1 mps 730 mmHg 88%
05:00 +18°C° 0.2 mm 1 mps 730 mmHg 90%
06:00 +20°C° 0.2 mm 1 mps 730 mmHg 86%
07:00 +21°C° 0.2 mm 1 mps 731 mmHg 81%
08:00 +21°C° 0.2 mm 2 mps 731 mmHg 76%
09:00 +24°C° 0.1 mm 2 mps 731 mmHg 68%
10:00 +26°C° 0.1 mm 2 mps 731 mmHg 61%
11:00 +29°C° 0.1 mm 2 mps 731 mmHg 53%
12:00 +29°C° 0 mm 2 mps 730 mmHg 50%
13:00 +30°C° 0 mm 2 mps 730 mmHg 47%
14:00 +31°C° 0 mm 2 mps 729 mmHg 43%
15:00 +30°C° 0 mm 2 mps 729 mmHg 49%
16:00 +28°C° 0 mm 2 mps 729 mmHg 54%
17:00 +27°C° 0 mm 2 mps 729 mmHg 60%
18:00 +25°C° 0.1 mm 2 mps 729 mmHg 67%
19:00 +24°C° 0.1 mm 2 mps 729 mmHg 75%
20:00 +21°C° 0.1 mm 2 mps 730 mmHg 83%
21:00 +21°C° 0 mm 2 mps 730 mmHg 85%
22:00 +20°C° 0 mm 3 mps 730 mmHg 87%
23:00 +20°C° 0 mm 3 mps 730 mmHg 89%

15 April, Thursday

Time Temperature Precipitation Wind Pressure Humidity
00:00 +20°C° 0 mm 2 mps 729 mmHg 91%
01:00 +20°C° 0 mm 2 mps 729 mmHg 93%
02:00 +19°C° 0 mm 2 mps 729 mmHg 94%
03:00 +19°C° 0 mm 2 mps 729 mmHg 94%
04:00 +19°C° 0 mm 2 mps 729 mmHg 94%
05:00 +19°C° 0 mm 2 mps 729 mmHg 94%
06:00 +20°C° 0 mm 2 mps 730 mmHg 87%
07:00 +23°C° 0 mm 2 mps 730 mmHg 81%
08:00 +24°C° 0 mm 2 mps 731 mmHg 74%
09:00 +25°C° 0.1 mm 2 mps 731 mmHg 70%
10:00 +26°C° 0.1 mm 2 mps 731 mmHg 65%
11:00 +27°C° 0.1 mm 2 mps 731 mmHg 61%
12:00 +28°C° 0 mm 2 mps 730 mmHg 58%
13:00 +29°C° 0 mm 2 mps 729 mmHg 55%
14:00 +30°C° 0 mm 2 mps 729 mmHg 52%
15:00 +28°C° 0.1 mm 2 mps 728 mmHg 57%
16:00 +27°C° 0.1 mm 1 mps 728 mmHg 62%
17:00 +26°C° 0.1 mm 1 mps 728 mmHg 67%
18:00 +25°C° 0.8 mm 1 mps 729 mmHg 73%
19:00 +24°C° 0.8 mm 2 mps 729 mmHg 79%
20:00 +21°C° 0.8 mm 3 mps 730 mmHg 85%
21:00 +21°C° 1.1 mm 2 mps 730 mmHg 88%
22:00 +21°C° 1.1 mm 1 mps 730 mmHg 92%
23:00 +18°C° 1.1 mm 0 mps 730 mmHg 96%

16 April, Friday

Time Temperature Precipitation Wind Pressure Humidity
00:00 +20°C° 0.1 mm 1 mps 729 mmHg 95%
01:00 +20°C° 0.1 mm 1 mps 729 mmHg 95%
02:00 +21°C° 0.1 mm 1 mps 728 mmHg 94%
03:00 +21°C° 0 mm 1 mps 728 mmHg 93%
04:00 +21°C° 0 mm 1 mps 728 mmHg 93%
05:00 +21°C° 0 mm 1 mps 728 mmHg 92%
06:00 +22°C° 0 mm 1 mps 729 mmHg 89%
07:00 +22°C° 0 mm 1 mps 729 mmHg 86%
08:00 +23°C° 0 mm 1 mps 730 mmHg 83%
09:00 +24°C° 0 mm 1 mps 730 mmHg 76%
10:00 +26°C° 0 mm 2 mps 730 mmHg 70%
11:00 +27°C° 0 mm 2 mps 730 mmHg 63%
12:00 +27°C° 0.1 mm 3 mps 730 mmHg 61%
13:00 +27°C° 0.1 mm 3 mps 730 mmHg 59%
14:00 +28°C° 0.1 mm 4 mps 729 mmHg 57%
15:00 +26°C° 0.5 mm 3 mps 729 mmHg 66%
16:00 +25°C° 0.5 mm 2 mps 729 mmHg 75%
17:00 +23°C° 0.5 mm 1 mps 728 mmHg 84%
18:00 +22°C° 0 mm 1 mps 729 mmHg 85%
19:00 +22°C° 0 mm 1 mps 729 mmHg 87%
20:00 +22°C° 0 mm 1 mps 729 mmHg 88%
21:00 +21°C° 0 mm 1 mps 729 mmHg 88%
22:00 +21°C° 0 mm 1 mps 729 mmHg 89%
23:00 +21°C° 0 mm 1 mps 729 mmHg 89%
Show more

We Need Your Consent

Meteoprog and our Service Providers may store and access personal data such as cookies, device identifiers or other similar technologies on your device and process such data to personalise content and ads, as well as provide social media features and to analyse the traffic.

  • Store and/or access information on your device

    Cookies, device identifiers or other information can be stored or accessed on your device for the purposes indicated above.

  • Personalised ads and content, ad and content measurement, audience insights, and products development

    Ads and content can be personalised based on a profile. More data can be added to better personalise ads and content. Ad and content performance can be measured. Insights about the audience who saw the ads and content can be derived. Such data can be used to develop or improve user’s experience, systems and software.

By clicking ‘I Agree’ you will allow the use of indicated cookies, device identifiers, web beacons or other similar technologies. Your settings can be changed in the browser on your device.

For certain purposes, legitimate interests may be relied on, rather than consent. You can read more about this in our Privacy and Cookie Policy.